Regional Weather Roundup
Issued by NWS

Home | Current Version | Previous Version | Graphics & Text | Print | Product List | Glossary On
Versions: 1 2 3 4 5 6 7 8 9 10 11 12 13 14 15 16 17 18 19 20 21 22 23 24 25 26 27 28
000
ASUS45 KBOU 230606
RWRCO

WEATHER ROUNDUP FOR COLORADO
NATIONAL WEATHER SERVICE DENVER/BOULDER CO
1200 AM MDT WED APR 23 2014

NOTE: "FAIR" INDICATES FEW OR NO CLOUDS BELOW 12000 FEET WITH NO
SIGNIFICANT WEATHER AND/OR OBSTRUCTIONS TO VISIBILITY.

COZ001>005-013-030-031-230700-
...NORTHWEST COLORADO...

CITY           SKY/WX    TMP DP  RH WIND       PRES   REMARKS
CRAIG          CLOUDY    51  34  52 CALM      29.69S
HAYDEN         CLOUDY    52  32  46 E9        29.72F
MEEKER         CLOUDY    58  32  37 SW17G36   29.71R
MOUNT WERNER   CLOUDY    45  25  45 SE30G43   29.88R
STEAMBOAT SPGS CLOUDY    54  28  35 SE15      29.70F
WALDEN         MOCLDY    50  28  43 S18G29    29.79R
$$

COZ006>008-011-230700-
...WEST CENTRAL VALLEYS...

CITY           SKY/WX    TMP DP  RH WIND       PRES   REMARKS
GRAND JUNCTION CLOUDY    68  25  19 SW15G23   29.62S
MONTROSE       CLOUDY    64  23  21 S13       29.74S
EAGLE          CLOUDY    54  37  54 NE8       29.76F
RIFLE          CLOUDY    68  20  16 SW25G36   29.67R
DELTA          NOT AVBL
NUCLA          NOT AVBL
$$

COZ017>023-064>068-230700-
...SOUTHWEST COLORADO...

CITY           SKY/WX    TMP DP  RH WIND       PRES   REMARKS
DURANGO        CLOUDY    60  19  20 SW10      29.88R
CORTEZ         CLOUDY    59  27  29 S13       29.84S
PAGOSA SPRINGS CLOUDY    60  17  18 SW6       29.93R
TELLURIDE      CLOUDY    54  19  26 S23G33    29.92F
WOLF CREEK PAS CLOUDY    36  21  55 SW23G40   30.10S
$$

COZ009-010-012-014-032>034-037-058>063-230700-
...CENTRAL COLORADO...

CITY           SKY/WX    TMP DP  RH WIND       PRES   REMARKS
ASPEN          CLOUDY    51  33  50 SE14      29.81F
BUENA VISTA    PTCLDY    48  31  52 SE6G17    29.86F
COPPER MTN     MOCLDY    37  27  65 S23       30.03S
BERTHOUD PASS  FAIR      32  23  69 MISG      30.02F
COTTONWOOD PAS CLOUDY    50  25  37 SW9G18    29.94F
GUNNISON       CLOUDY    45  32  61 N9        29.89F
KREMMLING      MOCLDY    52  30  43 S13G21    29.78F
LEADVILLE      MOCLDY    41  27  57 SE8       29.92F
MONARCH PASS   CLOUDY    34  27  75 SW25      30.15F WCI  21
SALIDA         PTCLDY    54  30  40 SW12      29.92F
SUNLIGHT       CLOUDY    41  28  60 S5        29.91F
WILKERSON PASS CLEAR     37  27  65 S13G20    30.01F
$$

COZ069>075-230700-
...SAN LUIS VALLEY/SANGRE DE CRISTO MOUNTAINS...

CITY           SKY/WX    TMP DP  RH WIND       PRES   REMARKS
ALAMOSA        PTCLDY    51  30  44 SW7       29.90F
LA VETA PASS   CLOUDY    43  30  61 SW15G38   30.00F
SAGUACHE       CLOUDY    48  30  49 SE3       29.91S
$$

COZ035-036-038>040-230700-
...NORTHERN COLORADO FRONT RANGE...

CITY           SKY/WX    TMP DP  RH WIND       PRES   REMARKS
DENVER INTL AP CLOUDY    61  33  35 S16       29.67F
DMNS CITY PARK   N/A     63  33  32 S8G15     29.65F
AURORA         MOCLDY    59  34  38 S15       29.69F
FRONT RANGE AP NOT AVBL
ERIE MUNI ARPT MOCLDY    60  37  42 S7        29.64F
BOULDER MUN AP MOCLDY    57  34  41 SW3       29.63F
CENTENNIAL     MOCLDY    58  32  37 S10       29.70F
BROOMFIELD     MOCLDY    59  36  41 S9        29.67F
FORT COLLINS   CLOUDY    57  36  44 S3        29.64F
LONGMONT       NOT AVBL
$$

COZ041-046-047-076>085-087-088-230700-
...PIKES PEAK/PALMER DIVIDE AND SOUTHERN FOOTHILLS...

CITY           SKY/WX    TMP DP  RH WIND       PRES   REMARKS
COLO. SPRINGS  CLOUDY    54  36  50 NE3       29.77S
A. F. ACADEMY  MOCLDY    55  33  43 VRB6      29.78F
ELLICOTT       NOT AVBL
FALCON         CLOUDY    52  35  51 SW3       29.81F
FORT CARSON    CLOUDY    56  33  42 E2        29.73F
LIMON          MOCLDY    51  39  63 SE5       29.73F
MONUMENT HILL  MOCLDY    48  32  53 S9        29.79F
TRINIDAD       PTCLDY    62  38  40 SW15      29.83F
$$

COZ042>045-048>051-090-091-230700-
...NORTHEAST COLORADO...

CITY           SKY/WX    TMP DP  RH WIND       PRES   REMARKS
GREELEY ARPT   CLOUDY    54  37  54 CALM      29.62F
AKRON          CLOUDY    61  42  49 S21G31    29.65F
BURLINGTON     CLOUDY    57  46  66 S22       29.71F
WRAY           PTCLDY    61  47  58 SE25G32   29.66F
STERLING       NOT AVBL
HOLYOKE        NOT AVBL
FORT MORGAN    NOT AVBL
$$

COZ086-089-092>099-230700-
...SOUTHEAST COLORADO...

CITY           SKY/WX    TMP DP  RH WIND       PRES   REMARKS
PUEBLO         CLOUDY    67  35  30 S18       29.69F
LA JUNTA       MOCLDY    68  40  35 SW18G26   29.72S
LAMAR          MOCLDY    59  44  57 S14       29.69F
SPRINGFIELD      N/A     63  42  46 S22G28    29.80F
$$



USA.gov is the U.S. government's official web portal to all federal, state and local government web resources and services.